Weather History for Barnwell, SC

Change the Weather History Date:

Friday, October 25, 2013

  Actual Average (KOGB) Record (KOGB)
Temperature  
Mean Temperature 52 °F 62 °F  
Max Temperature 62 °F 74 °F 85 °F (1953)
Min Temperature 42 °F 50 °F 32 °F (2006)
Degree Days  
Heating Degree Days 13 4  
Month to date heating degree days 55  
Since 1 July heating degree days 59  
Cooling Degree Days 0 2  
Month to date cooling degree days 85  
Year to date cooling degree days 2079  
Growing Degree Days 2 (Base 50)    
Moisture  
Dew Point 37 °F    
Average Humidity 64    
Maximum Humidity 93    
Minimum Humidity 32    
Precipitation  
Precipitation 0.00 in 0.07 in 0.94 in (1972)
Month to date precipitation 2.97  
Year to date precipitation 40.07  
Sea Level Pressure  
Sea Level Pressure 30.28 in    
Wind  
Wind Speed 3 mph (NNE)    
Max Wind Speed 15 mph    
Max Gust Speed 18 mph    
Visibility 10 miles    
Events      
T = Trace of Precipitation, MM = Missing Value Source: NWS Daily Summary

Daily Weather History Graph

Daily Weather History Graph

Search for Another Location

Airport:

Trip Planner

Search our weather history database for the weather conditions in past years. The results will help you decide how hot, cold, wet, or windy it might be!

Date:

Astronomy

Oct. 25, 2013 Rise Set
Actual Time 7:38 AM EDT 6:40 PM EDT
Civil Twilight 7:12 AM EDT 7:05 PM EDT
Nautical Twilight 6:43 AM EDT 7:34 PM EDT
Astronomical Twilight 6:14 AM EDT 8:03 PM EDT
Moon No Moon Rise 1:12 PM EDT (10/25)
Length of Visible Light 11h 52m
Length of Day
11h 02m
Waning Gibbous, 62% of the Moon is Illuminated
Oct 25
Waning Gibbous
Oct 26
Last Quarter
Nov 3
New
Nov 10
First Quarter
Nov 17
Full

Hourly Weather History & Observations

Time (EDT) Temp. Windchill Dew Point Humidity Pressure Visibility Wind Dir Wind Speed Gust Speed Precip Events Conditions
12:15 AM 44.6 °F - 42.8 °F 93% 30.17 in 10.0 mi Calm Calm - N/A   Clear
12:35 AM 44.6 °F - 41.0 °F 87% 30.18 in 10.0 mi Calm Calm - N/A   Clear
12:55 AM 42.8 °F - 41.0 °F 93% 30.18 in 10.0 mi Calm Calm - N/A   Clear
1:15 AM 42.8 °F - 41.0 °F 93% 30.18 in 10.0 mi Calm Calm - N/A   Scattered Clouds
1:35 AM 42.8 °F - 39.2 °F 87% 30.17 in 10.0 mi Calm Calm - N/A   Scattered Clouds
1:55 AM 44.6 °F - 42.8 °F 93% 30.18 in 10.0 mi Calm Calm - N/A   Mostly Cloudy
2:15 AM 44.6 °F - 42.8 °F 93% 30.19 in 10.0 mi Calm Calm - N/A   Partly Cloudy
2:35 AM 44.6 °F - 42.8 °F 93% 30.18 in 10.0 mi Calm Calm - N/A   Partly Cloudy
2:55 AM 44.6 °F - 41.0 °F 87% 30.18 in 10.0 mi Calm Calm - N/A   Partly Cloudy
3:15 AM 42.8 °F - 41.0 °F 93% 30.19 in 10.0 mi Calm Calm - N/A   Scattered Clouds
3:35 AM 44.6 °F - 41.0 °F 87% 30.19 in 10.0 mi Calm Calm - N/A   Scattered Clouds
3:55 AM 44.6 °F - 42.8 °F 93% 30.19 in 10.0 mi Calm Calm - N/A   Partly Cloudy
4:15 AM 42.8 °F - 41.0 °F 93% 30.19 in 10.0 mi Calm Calm - N/A   Partly Cloudy
4:35 AM 42.8 °F - 41.0 °F 93% 30.19 in 10.0 mi Calm Calm - N/A   Partly Cloudy
4:55 AM 42.8 °F - 41.0 °F 93% 30.19 in 10.0 mi Calm Calm - N/A   Scattered Clouds
5:15 AM 42.8 °F - 39.2 °F 87% 30.20 in 10.0 mi Calm Calm - N/A   Partly Cloudy
5:35 AM 44.6 °F - 41.0 °F 87% 30.21 in 10.0 mi Calm Calm - N/A   Partly Cloudy
5:55 AM 44.6 °F - 41.0 °F 87% 30.22 in 10.0 mi Calm Calm - N/A   Partly Cloudy
6:15 AM 44.6 °F - 41.0 °F 87% 30.22 in 10.0 mi Calm Calm - N/A   Scattered Clouds
6:35 AM 44.6 °F - 41.0 °F 87% 30.23 in 10.0 mi Calm Calm - N/A   Mostly Cloudy
6:55 AM 46.4 °F - 41.0 °F 81% 30.24 in 10.0 mi Calm Calm - N/A   Mostly Cloudy
7:15 AM 44.6 °F - 39.2 °F 81% 30.25 in 10.0 mi Calm Calm - N/A   Scattered Clouds
7:35 AM 44.6 °F - 39.2 °F 81% 30.26 in 10.0 mi Calm Calm - N/A   Mostly Cloudy
7:55 AM 42.8 °F - 39.2 °F 87% 30.27 in 10.0 mi Calm Calm - N/A   Scattered Clouds
8:15 AM 44.6 °F - 39.2 °F 81% 30.28 in 10.0 mi Calm Calm - N/A   Scattered Clouds
8:35 AM 44.6 °F 41.4 °F 41.0 °F 87% 30.29 in 10.0 mi North 5.8 mph - N/A   Partly Cloudy
8:55 AM 46.4 °F 42.9 °F 41.0 °F 81% 30.30 in 10.0 mi North 6.9 mph - N/A   Clear
9:15 AM 48.2 °F - 39.2 °F 71% 30.31 in 10.0 mi NNE 8.1 mph - N/A   Clear
9:35 AM 48.2 °F - 37.4 °F 66% 30.32 in 10.0 mi NE 10.4 mph - N/A   Clear
9:55 AM 51.8 °F - 35.6 °F 54% 30.32 in 10.0 mi NE 8.1 mph 18.4 mph N/A   Clear
10:15 AM 51.8 °F - 33.8 °F 50% 30.32 in 10.0 mi NE 12.7 mph - N/A   Clear
10:35 AM 53.6 °F - 35.6 °F 51% 30.32 in 10.0 mi NE 15.0 mph - N/A   Clear
10:55 AM 55.4 °F - 35.6 °F 47% 30.32 in 10.0 mi ENE 10.4 mph - N/A   Clear
11:15 AM 55.4 °F - 33.8 °F 44% 30.32 in 10.0 mi NNE 12.7 mph - N/A   Clear
11:35 AM 57.2 °F - 35.6 °F 44% 30.32 in 10.0 mi NNE 11.5 mph 18.4 mph N/A   Clear
11:55 AM 57.2 °F - 33.8 °F 41% 30.32 in 10.0 mi NNE 9.2 mph - N/A   Clear
12:15 PM 57.2 °F - 33.8 °F 41% 30.33 in 10.0 mi NE 10.4 mph 16.1 mph N/A   Clear
12:35 PM 59.0 °F - 33.8 °F 39% 30.32 in 10.0 mi NNE 8.1 mph - N/A   Partly Cloudy
12:55 PM 59.0 °F - 33.8 °F 39% 30.32 in 10.0 mi NE 9.2 mph - N/A   Clear
1:15 PM 59.0 °F - 33.8 °F 39% 30.32 in 10.0 mi NNE 9.2 mph - N/A   Clear
1:35 PM 59.0 °F - 33.8 °F 39% 30.31 in 10.0 mi North 6.9 mph - N/A   Partly Cloudy
1:55 PM 60.8 °F - 32.0 °F 34% 30.30 in 10.0 mi NNW 6.9 mph 16.1 mph N/A   Clear
2:15 PM 60.8 °F - 32.0 °F 34% 30.30 in 10.0 mi ENE 12.7 mph 16.1 mph N/A   Clear
2:35 PM 62.6 °F - 33.8 °F 34% 30.29 in 10.0 mi North 8.1 mph - N/A   Clear
2:55 PM 60.8 °F - 32.0 °F 34% 30.29 in 10.0 mi North 10.4 mph 16.1 mph N/A   Clear
3:15 PM 62.6 °F - 33.8 °F 34% 30.28 in 10.0 mi NNW 10.4 mph - N/A   Clear
3:35 PM 60.8 °F - 32.0 °F 34% 30.29 in 10.0 mi North 9.2 mph - N/A   Clear
3:55 PM 62.6 °F - 32.0 °F 32% 30.29 in 10.0 mi North 10.4 mph - N/A   Partly Cloudy
4:15 PM 62.6 °F - 32.0 °F 32% 30.28 in 10.0 mi NNE 12.7 mph - N/A   Clear
4:35 PM 62.6 °F - 32.0 °F 32% 30.28 in 10.0 mi North 10.4 mph - N/A   Clear
4:55 PM 60.8 °F - 32.0 °F 34% 30.28 in 10.0 mi NNE 11.5 mph - N/A   Clear
5:15 PM 60.8 °F - 32.0 °F 34% 30.29 in 10.0 mi North 6.9 mph - N/A   Clear
5:35 PM 60.8 °F - 32.0 °F 34% 30.29 in 10.0 mi NNE 8.1 mph - N/A   Clear
5:55 PM 59.0 °F - 32.0 °F 36% 30.29 in 10.0 mi Calm Calm - N/A   Clear
6:15 PM 57.2 °F - 32.0 °F 38% 30.30 in 10.0 mi North 4.6 mph - N/A   Clear
6:35 PM 57.2 °F - 32.0 °F 38% 30.30 in 10.0 mi NNE 3.5 mph - N/A   Clear
6:55 PM 53.6 °F - 33.8 °F 47% 30.30 in 10.0 mi Calm Calm - N/A   Clear
7:15 PM 51.8 °F - 35.6 °F 54% 30.31 in 10.0 mi Calm Calm - N/A   Clear
7:35 PM 50.0 °F - 35.6 °F 58% 30.31 in 10.0 mi Calm Calm - N/A   Clear
7:55 PM 48.2 °F - 35.6 °F 62% 30.32 in 10.0 mi Calm Calm - N/A   Clear
8:15 PM 48.2 °F - 35.6 °F 62% 30.33 in 10.0 mi Calm Calm - N/A   Clear
8:35 PM 46.4 °F 45.2 °F 35.6 °F 66% 30.33 in 10.0 mi NNE 3.5 mph - N/A   Clear
8:55 PM 46.4 °F - 33.8 °F 62% 30.33 in 10.0 mi Calm Calm - N/A   Clear
9:15 PM 46.4 °F - 33.8 °F 62% 30.34 in 10.0 mi Calm Calm - N/A   Clear
9:35 PM 46.4 °F 44.3 °F 35.6 °F 66% 30.34 in 10.0 mi NNE 4.6 mph - N/A   Clear
9:55 PM 46.4 °F 44.3 °F 35.6 °F 66% 30.35 in 10.0 mi NE 4.6 mph - N/A   Clear
10:15 PM 44.6 °F 42.2 °F 35.6 °F 71% 30.36 in 10.0 mi NE 4.6 mph - N/A   Clear
10:35 PM 44.6 °F 42.2 °F 35.6 °F 71% 30.36 in 10.0 mi NE 4.6 mph - N/A   Clear
10:55 PM 44.6 °F - 33.8 °F 66% 30.37 in 10.0 mi Calm Calm - N/A   Clear
11:15 PM 44.6 °F - 33.8 °F 66% 30.37 in 10.0 mi Calm Calm - N/A   Clear
11:35 PM 44.6 °F - 33.8 °F 66% 30.37 in 10.0 mi Calm Calm - N/A   Clear
11:55 PM 44.6 °F - 33.8 °F 66% 30.36 in 10.0 mi Calm Calm - N/A   Clear